Regional Weather Roundup
Issued by NWS

Home | Current Version | Previous Version | Text Only | Print | Product List | Glossary On
Versions: 1 2 3 4 5 6 7 8 9 10 11 12 13 14 15 16 17 18 19 20 21 22 23 24 25 26 27 28 29 30 31 32 33 34 35 36 37 38 39 40 41 42 43 44 45 46 47 48 49 50
000
ASUS43 KDTX 290110
RWRMI
MICHIGAN HOURLY REGIONAL WEATHER ROUNDUP
NATIONAL WEATHER SERVICE DETROIT/PONTIAC MI
900 PM EDT MON JUL 28 2014

NOTE: "FAIR" INDICATES FEW OR NO CLOUDS BELOW 12,000 FEET WITH NO
SIGNIFICANT WEATHER AND/OR OBSTRUCTION TO VISIBILITY.

MIZ047>049-052>055-059>063-066>070-074>076-081>083-290200-
SOUTHEAST LOWER MICHIGAN

CITY           SKY/WX    TMP DP  RH WIND       PRES   REMARKS
ADRIAN         PTCLDY    62  51  67 N10       29.99R
ALMA           PTCLDY    56  50  81 CALM      30.02S
ANN ARBOR      PTCLDY    60  48  64 NE10      29.99R
BAD AXE        CLOUDY    56  49  78 W3        29.98F
CARO           CLOUDY    60  54  79 CALM      29.98F
DETROIT CITY   PTCLDY    62  47  57 N10       29.98R
DETROIT        MOCLDY    61  49  64 N10       29.98R
FLINT          PTCLDY    59  45  59 N7        30.00S
GROSSE ILE     MOCLDY    63  52  67 N7        29.97R
HILLSDALE      MOCLDY    63  52  67 N7        30.00R
HOWELL         MOCLDY    57  48  70 N6        30.00S

CITY           SKY/WX    TMP DP  RH WIND       PRES   REMARKS
JACKSON        MOCLDY    61  49  64 N7        30.00R
LAMBERTVILLE   MOCLDY    64  50  59 N6        29.98R
LANSING        PTCLDY    58  46  64 N5        30.02R
LAPEER         CLOUDY    57  47  68 NW5       30.00S
MASON          CLOUDY    60  47  64 N7        30.01R
MONROE         PTCLDY    63  52  67 N5        29.96R
MT. CLEMENS    PTCLDY    58  46  66 N8        29.96S
PONTIAC        PTCLDY    58  47  66 N7        29.99R
PORT HOPE        N/A     61  48  62 NW3       29.96S
PORT HURON     CLOUDY    57  48  72 NW6       29.98S
TRI CITIES     MOCLDY    60  47  61 NW3       30.01S
TROY           CLEAR     59  49  69 N7        30.00R
SAGINAW HB     PTCLDY    57  46  67 NW6       30.00S
$$
MIZ043>046-050>051-056>058-064>065-071>073-077>080-290200-
SOUTHWEST LOWER MICHIGAN

CITY           SKY/WX    TMP DP  RH WIND       PRES   REMARKS
BATTLE CREEK   CLEAR     61  47  59 N7        30.02R
BENTON HARBOR  CLEAR     55  49  80 CALM      30.05S
BIG RAPIDS     CLEAR     59  48  67 CALM      30.02S
COLDWATER      MOCLDY    63  54  73 W7        30.01R
FREMONT        FAIR      59  48  67 NW5       30.03S
HOLLAND        CLEAR     59  47  64 NW6       30.04S
GRAND RAPIDS   PTCLDY    63  46  54 N9        30.02S
IONIA          MOCLDY    58  50  75 N3        30.01F
KALAMAZOO      CLEAR     60  49  66 NW8       30.03R
LUDINGTON      CLEAR     57  52  83 CALM      30.04F
MARSHALL       PTCLDY    60  49  67 NW3       30.01R
MOUNT PLEASANT MOCLDY    59  50  72 CALM      30.01S
MUSKEGON       CLEAR     61  49  64 NW7       30.03F
SOUTH HAVEN    CLEAR     55  48  79 N5        30.05S
$$
MIZ016>042-290200-
NORTHERN LOWER MICHIGAN

CITY           SKY/WX    TMP DP  RH WIND       PRES   REMARKS
ALPENA         CLEAR     59  48  67 NW3       29.97S
BEAVER ISLAND  PTCLDY    58  56  92 SW3       30.00S
BELLAIRE       MOCLDY    59  50  72 CALM      30.01R
CADILLAC       CLEAR     56  49  79 CALM      30.02S
CHARLEVOIX     CLOUDY    61  51  70 W9        30.03S
FRANKFORT      CLEAR     58  49  71 CALM      30.03F
GAYLORD        PTCLDY    58  49  72 NW5       30.00S
GRAYLING       CLEAR     57  48  73 W5        30.01S
HARBOR SPRINGS CLOUDY    61  52  73 W7        30.00S
HOUGHTON LAKE  CLEAR     57  48  72 NW6       30.01S
MANISTEE       CLEAR     57  46  67 CALM      30.04F
OSCODA         CLEAR     58  49  70 W3        29.97S
PELLSTON       CLOUDY    61  53  75 W7        29.99S
ROGERS CITY    CLEAR     58  52  78 CALM      29.98S
TRAVERSE CITY  PTCLDY    63  48  58 W7        30.01R
$$
MIZ007>008-015-290200-
EASTERN UPPER MICHIGAN

CITY           SKY/WX    TMP DP  RH WIND       PRES   REMARKS
KINROSS        MOCLDY    55  48  76 N7        29.98S
MACKINAC ISLAN CLEAR     60  50  68 NW6       29.97S
NEWBERRY       PTCLDY    59  50  72 NW5       29.98F
S. S. MARIE    PTCLDY    55  47  74 NW6       29.97F
MUNISING         N/A     64  51  62 CALM      29.98F
$$
MIZ004>006-011>014-085-290200-
CENTRAL UPPER MICHIGAN

CITY           SKY/WX    TMP DP  RH WIND       PRES   REMARKS
MANISTIQUE     PTCLDY    64  50  58 NW7       29.99S
ESCANABA       CLOUDY    64  52  63 CALM      30.00F
MENOMINEE      MOCLDY    64  55  72 SW3       30.01F
SAWYER-GWINN   CLOUDY    64  54  68 CALM      30.01F
$$
MIZ001>003-009>011-084-290200-
WESTERN UPPER MICHIGAN

CITY           SKY/WX    TMP DP  RH WIND       PRES   REMARKS
IRON MOUNTAIN  CLOUDY    67  52  58 W5        30.02F
COPPER HARBOR    N/A     63  54  72 N12       29.98F
$$

ABBREVIATIONS USED IN REMARKS
   TC - TEMPERATURE IN CELSIUS
  WCI - WIND CHILL INDEX
   HX - HEAT INDEX
  VSB - VISIBILITY



USA.gov is the U.S. government's official web portal to all federal, state and local government web resources and services.